Tracking 28125 objects as of 4-Oct-2023
HD Live streaming from Space Station
objects crossing your sky now

THORAD AGENA D DEB

Track THORAD AGENA D DEB now!
10-day predictions


NORAD ID: 4951
Int'l Code: 1970-025GM
Perigee: 1,027.1 km
Apogee: 1,054.8 km
Inclination: 100.1 °
Period: 105.8 minutes
Semi major axis: 7411 km
RCS: 0.071 m2 (small)
Launch date: April 8, 1970
Source: United States (US)
Launch site: AIR FORCE WESTERN TEST RANGE (AFWTR)

Note: This is SATELLITE DEBRIS
Your satellite tracking list
Your tracking list is empty




NASA's NSSDC Master Catalog

Two Line Element Set (TLE):
1 04951U 70025GM  23276.81564522  .00000345  00000-0  52087-3 0  9993
2 04951 100.0658 221.5286 0018685  63.9122 351.0594 13.60504912648532
Source of the keplerian elements: AFSPC